Weather Service Report


177 
ASCA44 KEWX 251620
RWRMX 

LATIN AMERICA AND CARIBBEAN REGIONAL WEATHER ROUNDUP
NATIONAL WEATHER SERVICE AUSTIN/SAN ANTONIO TX
1000 AM CST SUN JAN 25 2015

NOTE: "FAIR" INDICATED FEW OR NO CLOUDS BELOW 12,000 FEET WITH NO
SIGNIFICANT WEATHER AND/OR OBSTRUCTIONS TO VISIBILITY.

BAJA CALIFORNIA
  
CITY           SKY/WX    TMP DP  RH WIND       PRES   REMARKS
LORETO         PTSUNNY   59  50  72 CALM      30.00S                  
LA PAZ         CLOUDY    61  57  88 CALM      30.01                   
MEXICALI       MOSUNNY   50  21  32 CALM      30.09                   
S.J. DEL CABO  CLOUDY    61  57  88 CALM      30.02R                  
TIJUANA        MOSUNNY   59  23  25 NE5       30.05R                  

NORTHWESTERN MEXICO
  
CITY           SKY/WX    TMP DP  RH WIND       PRES   REMARKS
CULIACAN       CLOUDY    64  59  82 CALM      29.97                   
DURANGO        CLOUDY    45  30  57 N5        30.31R WCI  42          
GUAYMAS        PTSUNNY   63  37  39 CALM      29.96                   
HERMOSILLO     CLOUDY    68  28  22 CALM      30.04                   
CD. JUAREZ     PTSUNNY   39  32  75 CALM      30.23                   
LOS MOCHIS     CLOUDY    64  52  63 CALM      30.01R                  
OBREGON        CLOUDY    63  46  55 N2        29.99R                  

NORTHEASTERN MEXICO
  
CITY           SKY/WX    TMP DP  RH WIND       PRES   REMARKS
CHIHUAHUA      CLOUDY    43  25  49 SW3       30.29                   
MATAMOROS      MOSUNNY   55  50  82 CALM      30.17                   
MONCLOVA         N/A    N/A N/A N/A MISG        N/A                   
MONTERREY      CLOUDY    55  41  58 N3        30.15R                  
NUEVO LAREDO   MOSUNNY   50  39  66 CALM      30.16                   
PIEDRAS NEGRAS PTSUNNY   52  37  58 NW6       30.18                   
REYNOSA        MOSUNNY   54  41  62 SE3       30.14                   
SALTILLO       CLOUDY    50  34  53 S12       30.28R WCI  46          
TORREON        CLOUDY    48  30  49 CALM      30.29R                  
CD. VICTORIA   CLOUDY    54  48  82 SE5       30.17                   

WESTERN MEXICO
  
CITY           SKY/WX    TMP DP  RH WIND       PRES   REMARKS
AGUASCALIENTES CLOUDY    55  39  54 SE5       30.32                   
COLIMA         PTSUNNY   72  63  73 CALM      30.10F                  
DEL BAJIO      PTSUNNY   57  45  62 CALM      30.36R                  
GUADALAJARA    PTSUNNY   63  48  59 N5        30.22                   
MANZANILLO     CLOUDY    79  68  69 N7        29.98R                  
MAZATLAN       CLOUDY    63  57  82 N8        29.97R                  
P. VALLARTA    CLOUDY    73  66  78 N6        29.97R                  
URUAPAN        CLOUDY    63  54  72 CALM      30.23R                  
ZACATECAS      PTSUNNY   54  36  50 CALM      30.33R                  

CENTRAL MEXICO
  
CITY           SKY/WX    TMP DP  RH WIND       PRES   REMARKS
CUERNAVACA     PTSUNNY   72  46  40 CALM      30.20R                  
MEXICO CITY    MOSUNNY   57  41  54 NE3       30.35R                  
MORELIA        PTSUNNY   59  48  67 CALM      30.29                   
POZA RICA      CLOUDY    59  52  77 CALM      30.19R                  
PUEBLA         PTSUNNY   57  41  54 N7        30.35R                  
QUERETARO      PTSUNNY   55  45  67 CALM      30.36R                  
S. LUIS POTOSI CLOUDY    52  43  71 SE5       30.29R                  
TAMPICO        CLOUDY    61  48  63 SW6       30.19R                  
TOLUCA         PTSUNNY   52  43  71 W3        30.42R FOG              

SOUTHERN MEXICO
  
CITY           SKY/WX    TMP DP  RH WIND       PRES   REMARKS
ACAPULCO       CLOUDY    79  68  69 N6        29.94S                  
B. DE HUATULCO PTSUNNY   79  68  69 W7        29.97                   
OAXACA         MOSUNNY   57  45  62 W2        30.28S                  
P. ESCONDIDO   MOSUNNY   84  64  51 SW5       30.06R                  
VERACRUZ       SUNNY     68  54  60 CALM      30.16R                  
ZIHUATANEJO    CLOUDY    77  70  78 CALM      29.97R                  

YUCATAN PENINSULA
  
CITY           SKY/WX    TMP DP  RH WIND       PRES   REMARKS
CAMPECHE       MOSUNNY   72  59  64 N9        30.11S                  
CANCUN         MOSUNNY   73  61  64 N8        30.10S                  
CHETUMAL       SUNNY     70  59  68 NW17      30.10S                  
CD. DEL CARMEN CLOUDY    70  63  78 SE7       30.13                   
COZUMEL        SUNNY     70  61  73 N14       30.11R                  
MERIDA         PTSUNNY   73  55  53 NE5       30.13S                  
MINATITLAN     CLOUDY    66  63  88 CALM      30.11                   
TAPACHULA      SUNNY     84  70  61 CALM      29.93R                  
TUX. GUTIERREZ MOSUNNY   68  54  60 NW6       30.11F                  
VILLAHERMOSA   CLOUDY    68  64  88 S5        30.16R                  

CENTRAL AMERICA
  
CITY           SKY/WX    TMP DP  RH WIND       PRES   REMARKS
BELIZE CITY    MOSUNNY   73  59  60 NW10      30.12R                  

CARIBBEAN
  
CITY           SKY/WX    TMP DP  RH WIND       PRES   REMARKS
ARUBA          MOSUNNY   88  72  58 E21       29.92S HX  94           
CURACAO        MOSUNNY   88  70  55 SE21      29.94F HX  92           
KINGSTON       MOSUNNY   84  72  65 SW6       29.97F                  
NASSAU         PTSUNNY   72  57  60 N7        30.07R                  
SAN JUAN       MOSUNNY   84  68  58 NE13      30.02F                  
SANTO DOMINGO  LGT RAIN  82  73  74 S7        30.00F                  
ST. KITTS      MOSUNNY   84  72  65 E16       30.03S                  
ST. MAARTEN    MOSUNNY   82  70  65 SE12      30.03F                  

$$


Return to Home page


Western Regional Climate Center, wrcc@dri.edu